Location: DARK SKY Beskydy - Park tmavé oblohy, www.darkskybeskydy.cz
(49.4926°N, 18.5016°E)
Time: 08:25:07
(UTC+02:00)

Envisat - Pass Details

Date: 19 June 2024
Orbit: 762 x 764 km, 98.3° (Epoch: 12 July)

Event Time Altitude Azimuth Distance (km) Brightness Sun altitude
Rises 03:11:59 0° 23° (NNE) 3,238 8.2 -10.3°
Reaches altitude 10° 03:14:38 10° 35° (NE) 2,306 7.1 -10.1°
Maximum altitude 03:18:56 27° 93° (E) 1,428 4.8 -9.7°
Drops below altitude 10° 03:23:13 10° 151° (SSE) 2,290 5.2 -9.3°
Sets 03:25:49 0° 164° (SSE) 3,211 5.9 -9.0°
